Simultaneous Nadir Overpasses (SNOs) Predictions

Prediction of SNOs over PacNW region [( 10.00, 139.50) to ( 22.70, 165.60)] between AQUA and NPP Satellites:

Table of predicted SNOs over PacNW region for the next 30.0 days since TLE Epoch: 11/6/2021
Index Date (AQUA) Time (AQUA) AQUA Lat,Lon Date (NPP) Time (NPP) NPP Lat,Lon Distance(km) Time Diff (sec)
1 11/11/2021 15:10:08 22.58, 159.83 11/11/2021 15:12:38 23.18, 157.02 295.63 150
2 11/14/2021 03:31:59 22.69, 147.50 11/14/2021 03:28:50 22.28, 145.62 198.37 189
3 11/19/2021 15:59:35 22.60, 147.48 11/19/2021 16:03:03 24.94, 144.76 380.25 208
4 11/22/2021 02:42:32 22.67, 159.88 11/22/2021 02:39:03 25.11, 157.57 359.05 209
5 11/27/2021 15:10:07 22.62, 159.87 11/27/2021 15:12:57 23.27, 156.99 302.89 170
6 11/30/2021 03:31:55 22.64, 147.55 11/30/2021 03:29:08 22.22, 145.59 206.48 167
